Orbital Elements at Epoch 2459200.5 (2020-Dec-17.0) TDB
Reference: JPL 21 (heliocentric ecliptic J2000)
Element | Value | Uncertainty (1-sigma) | Units |
e | .1132658557403388 | 3.6714e-08 | |
a | 2.33013162713782 | 1.1926e-08 | au |
q | 2.066207274402427 | 8.5039e-08 | au |
i | 6.643779869450777 | 4.7262e-06 | deg |
node | 40.10011757925849 | 3.3777e-05 | deg |
peri | 270.5052343827913 | 4.0225e-05 | deg |
M | 189.7573198048677 | 2.3056e-05 | deg |
tp | 2459814.877151434135 (2022-Aug-23.37715143) | 8.5227e-05 | TDB |
period | 1299.179349519032 3.56 | 9.9741e-06 2.731e-08 | d yr |
n | .277098000467199 | 2.1274e-09 | deg/d |
Q | 2.594055979873213 | 1.3277e-08 | au |
|
| | Orbit Determination Parameters
Additional Information
|